GW5118 Weather Reports


Display with metric or nautical units.
time (UTC)temp
F
wind
direction
speed
MPH
gust
MPH
rain 1hr
in
rain 24hr
in
rain mn
in
humidity
%
barometer
mb
20260505102003 45 210 0.0 1.0 0.00 0.00 0.00 95 1031.3
20260505101501 45 214 1.0 1.0 0.00 0.00 0.00 95 1031.2
20260505100957 45 200 1.0 2.0 0.00 0.00 0.00 94 1031.2
20260505100455 45 344 0.0 0.0 0.00 0.00 0.00 94 1030.9
20260505095951 45 344 0.0 0.0 0.00 0.00 0.00 94 1031.3
20260505095447 45 344 0.0 0.0 0.00 0.00 0.00 94 1031.2
20260505094943 45 359 0.0 1.0 0.00 0.00 0.00 93 1030.9
20260505094441 46 166 0.0 0.0 0.00 0.00 0.00 93 1030.9
20260505093936 46 193 1.0 2.0 0.00 0.00 0.00 93 1030.9
20260505093433 46 193 0.0 0.0 0.00 0.00 0.00 93 1030.9
20260505092931 47 351 0.0 1.0 0.00 0.00 0.00 93 1031.0
20260505092428 46 324 0.0 1.0 0.00 0.00 0.00 93 1030.9
20260505091926 46 327 0.0 2.0 0.00 0.00 0.00 93 1031.0
20260505091423 46 335 1.0 2.0 0.00 0.00 0.00 93 1030.9
20260505090921 46 27 0.0 1.0 0.00 0.00 0.00 93 1030.9
20260505090419 46 26 0.0 1.0 0.00 0.00 0.00 93 1030.8
20260505085916 46 30 1.0 1.0 0.00 0.00 0.00 93 1031.2
20260505085414 46 216 0.0 1.0 0.00 0.00 0.00 92 1031.0
20260505084912 46 217 0.0 0.0 0.00 0.00 0.00 92 1031.0
20260505084410 46 216 0.0 0.0 0.00 0.00 0.00 92 1031.2
20260505083908 46 216 0.0 0.0 0.00 0.00 0.00 92 1031.0
20260505083405 47 216 0.0 0.0 0.00 0.00 0.00 92 1031.0
20260505082901 47 216 0.0 0.0 0.00 0.00 0.00 92 1030.8
20260505082357 47 217 1.0 1.0 0.00 0.00 0.00 92 1031.0
20260505081854 47 237 0.0 0.0 0.00 0.00 0.00 92 1031.0
20260505081350 47 220 0.0 0.0 0.00 0.00 0.00 92 1031.0
20260505080847 47 220 1.0 1.0 0.00 0.00 0.00 91 1030.8
20260505080343 47 199 2.0 2.0 0.00 0.00 0.00 91 1030.8
20260505075839 47 200 2.0 2.0 0.00 0.00 0.00 90 1030.8
20260505075336 47 209 2.0 2.0 0.00 0.00 0.00 89 1030.6
20260505074833 47 217 0.0 0.0 0.00 0.00 0.00 88 1030.7
20260505074330 48 218 0.0 0.0 0.00 0.00 0.00 88 1030.6
20260505073828 48 217 0.0 0.0 0.00 0.00 0.00 87 1030.6
20260505073326 48 217 0.0 0.0 0.00 0.00 0.00 87 1030.7
20260505072822 48 217 0.0 0.0 0.00 0.00 0.00 86 1030.5
20260505072318 49 217 0.0 0.0 0.00 0.00 0.00 86 1030.4
20260505071814 49 218 0.0 0.0 0.00 0.00 0.00 85 1030.3
20260505071311 49 218 0.0 0.0 0.00 0.00 0.00 85 1030.4
20260505070809 49 218 0.0 0.0 0.00 0.00 0.00 84 1030.2
20260505070305 49 217 0.0 1.0 0.00 0.00 0.00 84 1030.2
20260505065800 49 234 0.0 2.0 0.00 0.00 0.00 84 1030.2
20260505065258 50 194 0.0 1.0 0.00 0.00 0.00 83 1030.2
20260505064754 50 156 1.0 1.0 0.00 0.00 0.00 82 1030.3
20260505064252 51 96 0.0 1.0 0.00 0.00 0.00 82 1030.1
20260505063749 51 221 0.0 0.0 0.00 0.00 0.00 81 1030.1
20260505063246 51 221 1.0 1.0 0.00 0.00 0.00 80 1030.1
20260505062742 51 222 0.0 0.0 0.00 0.00 0.00 80 1030.2
20260505062240 51 222 0.0 0.0 0.00 0.00 0.00 79 1030.2
20260505061736 51 222 0.0 0.0 0.00 0.00 0.00 79 1029.9
20260505061234 51 221 0.0 2.0 0.00 0.00 0.00 79 1030.1
20260505060731 51 183 1.0 2.0 0.00 0.00 0.00 80 1030.0
20260505060229 51 255 0.0 1.0 0.00 0.00 0.00 80 1030.0
20260505055724 51 181 0.0 1.0 0.00 0.00 0.00 79 1029.7
20260505055220 52 193 1.0 1.0 0.00 0.00 0.00 78 1030.0
20260505054718 52 186 0.0 0.0 0.00 0.00 0.00 77 1030.0
20260505054216 53 104 0.0 0.0 0.00 0.00 0.00 76 1029.9
20260505053714 53 348 0.0 0.0 0.00 0.00 0.00 76 1029.9
20260505053209 53 348 0.0 0.0 0.00 0.00 0.00 75 1029.8
20260505052707 53 348 0.0 0.0 0.00 0.00 0.00 74 1029.8
20260505052204 53 348 0.0 0.0 0.00 0.00 0.00 74 1029.8
20260505051701 53 347 0.0 0.0 0.00 0.00 0.00 74 1029.6
20260505051159 53 348 0.0 0.0 0.00 0.00 0.00 74 1029.8
20260505050658 53 348 0.0 0.0 0.00 0.00 0.00 73 1029.7
20260505050156 53 348 0.0 0.0 0.00 0.00 0.00 74 1029.6
20260505041630 55 159 0.0 0.0 0.00 0.00 0.00 71 1029.2
20260505041128 55 159 0.0 0.0 0.00 0.00 0.00 69 1029.2
20260505040624 55 160 0.0 0.0 0.00 0.00 0.00 69 1029.2
20260505040122 55 205 1.0 1.0 0.00 0.00 0.00 69 1029.2
20260505035618 55 231 1.0 1.0 0.00 0.00 0.00 69 1029.2
20260505035114 56 211 1.0 1.0 0.00 0.00 0.00 68 1029.4
20260505034611 56 209 0.0 1.0 0.00 0.00 0.00 67 1029.4
20260505034108 57 115 1.0 1.0 0.00 0.00 0.00 66 1029.4
20260505033605 57 121 0.0 0.0 0.00 0.00 0.00 65 1029.4
20260505033104 57 238 0.0 0.0 0.00 0.00 0.00 65 1029.3
20260505032601 58 239 0.0 0.0 0.00 0.00 0.00 63 1029.3
20260505032057 58 239 0.0 0.0 0.00 0.00 0.00 63 1029.7
20260505031555 58 240 0.0 0.0 0.00 0.00 0.00 63 1029.7
20260505031051 57 219 0.0 0.0 0.00 0.00 0.00 63 1029.8
20260505030548 58 204 0.0 0.0 0.00 0.00 0.00 62 1029.7
20260505030044 58 204 0.0 0.0 0.00 0.00 0.00 62 1029.7
20260505025539 58 204 0.0 0.0 0.00 0.00 0.00 62 1029.7
20260505025039 58 204 0.0 0.0 0.00 0.00 0.00 61 1029.6
20260505024535 58 204 0.0 0.0 0.00 0.00 0.00 61 1029.7
20260505024032 59 205 0.0 0.0 0.00 0.00 0.00 60 1029.6
20260505023529 59 205 0.0 0.0 0.00 0.00 0.00 60 1029.8
20260505023027 59 151 0.0 0.0 0.00 0.00 0.00 60 1029.7
20260505022524 59 243 0.0 1.0 0.00 0.00 0.00 60 1029.4
20260505022021 60 209 0.0 0.0 0.00 0.00 0.00 59 1029.7
20260505021518 60 219 0.0 0.0 0.00 0.00 0.00 58 1029.7
20260505021015 60 201 0.0 0.0 0.00 0.00 0.00 59 1029.3
20260505020514 60 227 1.0 2.0 0.00 0.00 0.00 58 1029.6
20260505020012 60 216 0.0 0.0 0.00 0.00 0.00 56 1029.3
20260505015509 61 217 0.0 0.0 0.00 0.00 0.00 56 1029.4
20260505015006 0 0.0 0.0 0.00 0.00 0.00 1029.7
20260505014503 0 0.0 0.0 0.00 0.00 0.00 1029.7
20260505014000 63 222 0.0 0.0 0.00 0.00 0.00 49 1029.6
20260505013457 63 222 0.0 0.0 0.00 0.00 0.00 49 1029.6
20260505012954 63 222 0.0 0.0 0.00 0.00 0.00 49 1029.6
20260505012452 63 222 0.0 0.0 0.00 0.00 0.00 49 1029.3
20260505011949 64 222 0.0 0.0 0.00 0.00 0.00 48 1029.2
20260505011444 64 223 0.0 0.0 0.00 0.00 0.00 47 1029.4
20260505010942 65 222 0.0 0.0 0.00 0.00 0.00 46 1029.2
20260505010437 65 222 0.0 0.0 0.00 0.00 0.00 46 1029.3
20260505005933 66 222 0.0 0.0 0.00 0.00 0.00 45 1029.1
20260505005430 66 222 0.0 0.0 0.00 0.00 0.00 44 1029.0
20260505004928 67 190 0.0 1.0 0.00 0.00 0.00 43 1028.9
20260505004424 67 217 1.0 2.0 0.00 0.00 0.00 42 1028.9
20260505003921 68 231 0.0 1.0 0.00 0.00 0.00 42 1028.8
20260505003419 68 227 1.0 3.0 0.00 0.00 0.00 41 1028.7
20260505002915 69 230 2.0 2.0 0.00 0.00 0.00 40 1028.9
20260505002411 69 234 2.0 3.0 0.00 0.00 0.00 40 1028.7
20260505001910 69 219 2.0 3.0 0.00 0.00 0.00 40 1028.9
20260505001407 69 251 3.0 7.0 0.00 0.00 0.00 39 1029.0
20260505000904 69 207 5.0 7.0 0.00 0.00 0.00 39 1028.7
20260505000402 70 232 3.0 3.0 0.00 0.00 0.00 41 1028.8
20260504235858 70 244 5.0 7.0 0.00 0.00 0.00 40 1028.7
20260504235355 71 228 1.0 3.0 0.00 0.00 0.00 40 1028.7
20260504234851 71 221 2.0 6.0 0.00 0.00 0.00 39 1028.7
20260504234349 72 233 5.0 8.0 0.00 0.00 0.00 37 1028.6
20260504233846 72 228 3.0 7.0 0.00 0.00 0.00 37 1028.4
20260504233341 72 221 5.0 7.0 0.00 0.00 0.00 36 1028.5
20260504232838 72 209 9.0 13.0 0.00 0.00 0.00 36 1028.4
20260504232336 72 250 4.0 9.0 0.00 0.00 0.00 37 1028.5
20260504231832 73 244 2.0 7.0 0.00 0.00 0.00 37 1028.5
20260504231329 73 202 4.0 4.0 0.00 0.00 0.00 37 1028.4
20260504230825 73 240 3.0 8.0 0.00 0.00 0.00 37 1028.2
20260504230323 73 229 6.0 10.0 0.00 0.00 0.00 36 1028.5
20260504225822 73 249 7.0 10.0 0.00 0.00 0.00 37 1028.6
20260504225317 74 214 2.0 6.0 0.00 0.00 0.00 37 1028.5
20260504224815 74 184 2.0 6.0 0.00 0.00 0.00 38 1028.6
20260504224312 74 232 4.0 7.0 0.00 0.00 0.00 37 1028.5
20260504223808 74 238 4.0 6.0 0.00 0.00 0.00 38 1028.6
20260504223304 74 218 3.0 6.0 0.00 0.00 0.00 37 1028.5
20260504222801 74 167 2.0 3.0 0.00 0.00 0.00 38 1028.7
20260504222258 74 212 6.0 9.0 0.00 0.00 0.00 37 1028.9
20260504221755 74 226 7.0 13.0 0.00 0.00 0.00 37 1028.6
20260504221253 74 276 4.0 9.0 0.00 0.00 0.00 36 1028.6
20260504220749 74 209 5.0 8.0 0.00 0.00 0.00 36 1028.7
20260504220246 74 233 4.0 13.0 0.00 0.00 0.00 36 1028.6
20260504215743 74 239 1.0 4.0 0.00 0.00 0.00 36 1028.5
20260504215240 73 245 4.0 8.0 0.00 0.00 0.00 35 1028.8
20260504214736 75 251 5.0 10.0 0.00 0.00 0.00 35 1028.7
20260504214232 74 240 3.0 11.0 0.00 0.00 0.00 37 1028.6
20260504213729 75 240 3.0 4.0 0.00 0.00 0.00 39 1028.7
20260504213226 75 221 3.0 6.0 0.00 0.00 0.00 37 1028.7
20260504212723 75 270 3.0 11.0 0.00 0.00 0.00 39 1028.5
20260504212219 75 234 4.0 6.0 0.00 0.00 0.00 39 1028.6
20260504211717 75 226 5.0 7.0 0.00 0.00 0.00 38 1028.7
20260504211213 75 184 5.0 9.0 0.00 0.00 0.00 39 1028.8
20260504210711 76 203 2.0 8.0 0.00 0.00 0.00 37 1028.8
20260504210207 76 263 2.0 3.0 0.00 0.00 0.00 40 1028.5
20260504205704 76 230 4.0 7.0 0.00 0.00 0.00 39 1028.7
20260504205201 75 218 3.0 3.0 0.00 0.00 0.00 40 1028.7
20260504204700 75 217 3.0 4.0 0.00 0.00 0.00 39 1028.7
20260504204158 74 221 2.0 8.0 0.00 0.00 0.00 40 1028.6
20260504203657 74 120 5.0 13.0 0.00 0.00 0.00 40 1028.8
20260504203154 75 181 6.0 11.0 0.00 0.00 0.00 39 1028.7
20260504202654 76 135 3.0 6.0 0.00 0.00 0.00 39 1028.8
20260504202152 76 241 1.0 2.0 0.00 0.00 0.00 40 1028.9
20260504201648 75 213 3.0 8.0 0.00 0.00 0.00 39 1028.9
20260504201146 74 251 1.0 4.0 0.00 0.00 0.00 40 1028.9
20260504200643 74 241 3.0 7.0 0.00 0.00 0.00 40 1029.0
20260504200140 75 180 4.0 7.0 0.00 0.00 0.00 43 1029.0
20260504195635 73 157 3.0 8.0 0.00 0.00 0.00 41 1029.0
20260504195132 72 229 2.0 7.0 0.00 0.00 0.00 44 1029.1
20260504194629 71 265 3.0 6.0 0.00 0.00 0.00 45 1029.2
20260504194125 73 123 2.0 3.0 0.00 0.00 0.00 45 1029.3
20260504193621 72 208 1.0 3.0 0.00 0.00 0.00 47 1029.3
20260504193120 70 217 2.0 6.0 0.00 0.00 0.00 47 1029.4
20260504192617 69 218 1.0 2.0 0.00 0.00 0.00 50 1029.4
20260504192115 69 263 4.0 8.0 0.00 0.00 0.00 48 1030.2
20260504191614 69 231 1.0 6.0 0.00 0.00 0.00 47 1030.0
20260504191109 69 251 4.0 11.0 0.00 0.00 0.00 47 1030.0
20260504190606 70 240 3.0 7.0 0.00 0.00 0.00 47 1030.1
20260504185559 71 231 5.0 10.0 0.00 0.00 0.00 46 1030.2
20260504185055 71 254 1.0 8.0 0.00 0.00 0.00 45 1030.0
20260504184551 70 158 2.0 7.0 0.00 0.00 0.00 45 1030.2
20260504184046 71 215 5.0 8.0 0.00 0.00 0.00 46 1030.4
20260504183544 71 173 4.0 8.0 0.00 0.00 0.00 45 1030.6
20260504183042 71 259 4.0 4.0 0.00 0.00 0.00 47 1030.3
20260504182538 69 258 3.0 8.0 0.00 0.00 0.00 47 1030.3
20260504182036 71 237 2.0 7.0 0.00 0.00 0.00 45 1030.6
20260504181533 69 214 3.0 4.0 0.00 0.00 0.00 46 1030.5
20260504181031 70 41 2.0 3.0 0.00 0.00 0.00 48 1030.3
20260504180530 69 276 3.0 4.0 0.00 0.00 0.00 47 1030.6
20260504180028 67 227 3.0 7.0 0.00 0.00 0.00 49 1030.5
20260504175525 67 219 3.0 8.0 0.00 0.00 0.00 48 1030.7
20260504175022 66 176 1.0 2.0 0.00 0.00 0.00 49 1030.7
20260504174520 66 234 3.0 4.0 0.00 0.00 0.00 48 1030.5
20260504174016 66 196 2.0 4.0 0.00 0.00 0.00 50 1030.9
20260504173513 65 203 4.0 6.0 0.00 0.00 0.00 51 1030.6
20260504173011 65 233 3.0 8.0 0.00 0.00 0.00 50 1031.0
20260504172506 66 230 3.0 4.0 0.00 0.00 0.00 50 1031.0
20260504172003 67 251 3.0 8.0 0.00 0.00 0.00 48 1031.5
20260504171500 66 243 3.0 8.0 0.00 0.00 0.00 50 1031.5
20260504170957 67 220 5.0 11.0 0.00 0.00 0.00 48 1031.6
20260504170453 68 273 2.0 6.0 0.00 0.00 0.00 48 1031.6
20260504160413 67 169 4.0 6.0 0.00 0.00 0.00 47 1032.0
20260504150837 62 209 7.0 10.0 0.00 0.00 0.00 51 1032.4
20260504150333 62 249 3.0 4.0 0.00 0.00 0.00 51 1032.4
20260504141304 62 174 3.0 4.0 0.00 0.00 0.00 52 1032.8
20260504140800 60 148 2.0 4.0 0.00 0.00 0.00 55 1032.9
20260504140256 60 48 1.0 1.0 0.00 0.00 0.00 56 1033.1
20260504130725 52 50 2.0 2.0 0.00 0.00 0.00 66 1033.2
20260504130220 51 61 1.0 2.0 0.00 0.00 0.00 68 1033.2
20260504120144 45 31 0.0 1.0 0.00 0.00 0.00 77 1032.7
20260504110612 40 320 0.0 0.0 0.00 0.00 0.00 89 1032.7
20260504110108 40 355 0.0 0.0 0.00 0.00 0.00 90 1032.7